Location: Asheville, NC
(35.6000°N, 82.5500°W)
Time: 06:11:02
(UTC-04:00)

KAITUO 1B - Pass Details

Date: 12 February 2018
Orbit: 498 x 521 km, 97.5° (Epoch: 19 May)

Event Time Altitude Azimuth Distance (km) Brightness Sun altitude
Rises 18:59:46 0° 204° (SSW) 2,588 ? -10.9°
Reaches altitude 10° 19:02:31 10° 228° (SW) 1,704 ? -11.4°
Maximum altitude 19:04:47 16° 266° (W) 1,391 ? -11.9°
Drops below altitude 10° 19:07:02 10° 304° (NW) 1,706 ? -12.3°
Sets 19:09:48 0° 327° (NNW) 2,591 ? -12.9°
